{"data":{"norad_id":67331,"epoch":"2026-09-19T11:06:37.047456Z","epoch_age_seconds":164796,"freshness":"FRESH","line1":"1 67331U 26002AC  26262.46292879  .00009242  00000+0  34478-3 0  9990","line2":"2 67331  43.0037 310.9681 0001787 282.8092  77.2560 15.27596795 40873","mean_motion":15.27596795,"eccentricity":0.0001787,"inclination_deg":43.0037,"raan_deg":310.9681,"arg_perigee_deg":282.8092,"mean_anomaly_deg":77.256,"bstar":0.00034478,"rev_number":4087,"period_min":94.265712307939,"perigee_km":481.77272125987,"apogee_km":484.22489119702,"semimajor_km":6861.1358062284,"source":"CELESTRAK","updated_at":"2026-09-20T09:00:43.509376Z"}}